User: anonymous   Login
Location: La Pernelle
(49.6188°N, 1.2999°W)
Time: 18:30:50
(UTC+00:00)
Language:

CARTOSAT-1 - Orbit

View from above orbital plane
View from above orbital plane
View from above satellite
View from above satellite

Ground track
Ground track

The orbit data is extracted from the following two-line orbital elements,

1 28649U 05017A   21269.63671556  .00000227  00000-0  33665-4 0  9999
2 28649  97.7581 333.0367 0001926  47.4620 312.6756 14.83823506887614
Epoch (UTC): 26 September 2021 15:16:52
Eccentricity: 0.0001926
inclination: 97.7581°
perigee height: 616 km
apogee height: 618 km
right ascension of ascending node: 333.0367°
argument of perigee: 47.4620°
revolutions per day: 14.83823506
mean anomaly at epoch: 312.6756°
orbit number at epoch: 88761

The dashed part of the orbit path shows where the satellite is in the earth's shadow,  

DLR